Tracking 19817 objects as of 19-Aug-2019
HD Live streaming from Space Station
objects crossing your sky now

FLOCK 3P 81

Track FLOCK 3P 81 now!
10-day predictions
FLOCK 3P 81 is classified as:


NORAD ID: 42043
Int'l Code: 2017-008CZ
Perigee: 491.9 km
Apogee: 500.7 km
Inclination: 97.4 °
Period: 94.4 minutes
Semi major axis: 6867 km
RCS: Unknown
Launch date: February 15, 2017
Source: United States (US)
Launch site: SRIHARIKOTA (SRI)
aabbcc
Your satellite tracking list
Your tracking list is empty




NASA's NSSDC Master Catalog

Two Line Element Set (TLE):
1 42043U 17008CZ  19230.87298968 +.00000799 +00000-0 +34358-4 0  9993
2 42043 097.4056 297.6163 0006411 297.5401 062.5185 15.25530955138470
Source of the keplerian elements: AFSPC